Location: Newark
(52.3500°N, 175.9667°E)
Time: 02:10:49
(UTC+00:00)

N. Korean satellite - Pass Details

Date: 17 November 2019
Orbit: 455 x 507 km, 97.2° (Epoch: 14 December)

Event Time Altitude Azimuth Distance (km) Brightness Sun altitude
Rises 06:38:07 0° 220° (SW) 2,565 10.9 -20.5°
Reaches altitude 10° 06:41:46 10° 259° (W) 1,704 10.5 -21.0°
Maximum altitude 06:42:42 11° 274° (W) 1,660 10.4 -21.2°
Drops below altitude 10° 06:43:38 10° 289° (WNW) 1,714 10.3 -21.3°
Sets 06:47:22 0° 328° (NNW) 2,617 10.7 -21.9°
